timestamp,surface_pressure_avg,surface_temp_avg,battery_voltage,lat,long
2023-09-30 00:09:00+00:00,380.6162,12.04,11.93,47.84626,-54.09684
2023-09-30 00:19:00+00:00,377.6046,12.1,11.93,47.84626,-54.09684
2023-09-30 00:29:00+00:00,371.6579,12.1,11.93,47.84626,-54.09684
2023-09-30 00:39:00+00:00,368.923,12.1,11.93,47.84626,-54.09684
2023-09-30 00:49:00+00:00,364.5796,12.1,11.93,47.84626,-54.09684
2023-09-30 00:59:00+00:00,359.6662,12.06,11.93,47.84626,-54.09684
2023-09-30 01:09:00+00:00,354.5812,11.99,11.93,47.84626,-54.09684
2023-09-30 01:19:00+00:00,353.0262,11.99,11.93,47.84626,-54.09684
2023-09-30 01:29:00+00:00,349.5696,11.99,11.93,47.84626,-54.09684
2023-09-30 01:39:00+00:00,340.7463,12.0,11.93,47.84626,-54.09684
2023-09-30 01:49:00+00:00,332.7697,12.0,11.93,47.84626,-54.09684
2023-09-30 01:59:00+00:00,327.5981,12.0,11.93,47.84626,-54.09684
2023-09-30 02:09:00+00:00,318.128,12.0,11.93,47.84626,-54.09684
2023-09-30 02:19:00+00:00,301.7814,12.0,11.93,47.84626,-54.09684
2023-09-30 02:29:00+00:00,289.2847,12.0,11.93,47.84626,-54.09684
2023-09-30 02:39:00+00:00,283.8231,12.01,11.93,47.84626,-54.09684
2023-09-30 02:49:00+00:00,274.1897,12.0,11.93,47.84626,-54.09684
2023-09-30 02:59:00+00:00,259.0364,12.0,11.93,47.84626,-54.09684
2023-09-30 03:09:00+00:00,251.4164,12.01,11.93,47.84626,-54.09684
2023-09-30 03:19:00+00:00,247.9031,12.01,11.86,47.84626,-54.09684
2023-09-30 03:29:00+00:00,236.4381,12.01,11.86,47.84626,-54.09684
2023-09-30 03:39:00+00:00,222.2864,12.0,11.86,47.84626,-54.09684
2023-09-30 03:49:00+00:00,216.5181,12.0,11.86,47.84626,-54.09684
2023-09-30 03:59:00+00:00,210.1898,11.82,11.86,47.84626,-54.09684
2023-09-30 04:09:00+00:00,195.9398,11.67,11.86,47.84626,-54.09684
2023-09-30 04:19:00+00:00,185.3248,11.6,11.86,47.84626,-54.09684
2023-09-30 04:29:00+00:00,182.7365,11.6,11.86,47.84626,-54.09684
2023-09-30 04:39:00+00:00,176.9481,11.6,11.86,47.84626,-54.09684
2023-09-30 04:49:00+00:00,170.5482,11.6,11.86,47.84626,-54.09684
2023-09-30 04:59:00+00:00,168.8315,11.6,11.86,47.84626,-54.09684
2023-09-30 05:09:00+00:00,163.7498,11.64,11.86,47.84626,-54.09684
2023-09-30 05:19:00+00:00,158.9881,11.62,11.86,47.84626,-54.09684
2023-09-30 05:29:00+00:00,158.9231,11.6,11.86,47.84626,-54.09684
2023-09-30 05:39:00+00:00,157.5282,11.64,11.86,47.84626,-54.09684
2023-09-30 05:49:00+00:00,156.8932,11.69,11.86,47.84626,-54.09684
2023-09-30 05:59:00+00:00,160.2248,11.7,11.86,47.84626,-54.09684
2023-09-30 06:09:00+00:00,163.6065,11.73,11.86,47.84626,-54.09684
2023-09-30 06:19:00+00:00,165.5931,11.77,11.86,47.84626,-54.09684
2023-09-30 06:29:00+00:00,168.3365,11.79,11.86,47.84626,-54.09684
2023-09-30 06:39:00+00:00,173.7315,11.8,11.86,47.84626,-54.09684
2023-09-30 06:49:00+00:00,178.5614,11.8,11.86,47.84626,-54.09684
2023-09-30 06:59:00+00:00,182.3165,11.8,11.86,47.84626,-54.09684
2023-09-30 07:09:00+00:00,188.9248,11.8,11.86,47.84626,-54.09684
2023-09-30 07:19:00+00:00,195.2581,11.8,11.86,47.84626,-54.09684
2023-09-30 07:29:00+00:00,199.0648,11.8,11.86,47.84626,-54.09684
2023-09-30 07:39:00+00:00,201.2765,11.8,11.86,47.84626,-54.09684
2023-09-30 07:49:00+00:00,204.7931,11.8,11.86,47.84626,-54.09684
2023-09-30 07:59:00+00:00,210.4331,11.8,11.86,47.84626,-54.09684
2023-09-30 08:09:00+00:00,215.8731,11.8,11.86,47.84626,-54.09684
2023-09-30 08:19:00+00:00,221.2381,11.8,11.86,47.84626,-54.09684
2023-09-30 08:29:00+00:00,227.5714,11.8,11.86,47.84626,-54.09684
2023-09-30 08:39:00+00:00,234.4397,11.79,11.86,47.84626,-54.09684
2023-09-30 08:49:00+00:00,241.9798,11.76,11.86,47.84626,-54.09684
2023-09-30 08:59:00+00:00,249.2364,11.75,11.86,47.84626,-54.09684
2023-09-30 09:09:00+00:00,257.363,11.7,11.86,47.84626,-54.09684
2023-09-30 09:19:00+00:00,266.4481,11.7,11.86,47.84626,-54.09684
2023-09-30 09:29:00+00:00,275.0297,11.7,11.86,47.84626,-54.09684
2023-09-30 09:39:00+00:00,282.6497,11.7,11.86,47.84626,-54.09684
2023-09-30 09:49:00+00:00,290.7464,11.7,11.86,47.84626,-54.09684
2023-09-30 09:59:00+00:00,298.083,11.7,11.86,47.84626,-54.09684
2023-09-30 10:09:00+00:00,306.2164,11.7,11.86,47.84626,-54.09684
2023-09-30 10:19:00+00:00,316.483,11.7,11.86,47.84626,-54.09684
2023-09-30 10:29:00+00:00,326.1296,11.7,11.86,47.84626,-54.09684
2023-09-30 10:39:00+00:00,332.4430000000001,11.7,11.86,47.84626,-54.09684
2023-09-30 10:49:00+00:00,340.598,11.69,11.86,47.84626,-54.09684
2023-09-30 10:59:00+00:00,350.6013,11.67,11.86,47.84626,-54.09684
2023-09-30 11:09:00+00:00,358.3829,11.65,11.86,47.84626,-54.09684
2023-09-30 11:19:00+00:00,361.9379,11.65,12.09,47.84626,-54.09684
2023-09-30 11:29:00+00:00,366.7546,11.66,12.09,47.84626,-54.09684
2023-09-30 11:39:00+00:00,371.0829,11.64,12.09,47.84626,-54.09684
2023-09-30 11:49:00+00:00,371.9479,11.61,12.09,47.84626,-54.09684
2023-09-30 11:59:00+00:00,372.2496,11.65,12.09,47.84626,-54.09684
2023-09-30 12:09:00+00:00,374.8147,11.67,12.09,47.84626,-54.09684
2023-09-30 12:19:00+00:00,377.2361,11.69,12.17,47.84626,-54.09684
2023-09-30 12:29:00+00:00,375.2864,11.7,12.17,47.84626,-54.09684
2023-09-30 12:39:00+00:00,373.5212,11.69,12.17,47.84626,-54.09684
2023-09-30 12:49:00+00:00,372.963,11.69,12.17,47.84626,-54.09684
2023-09-30 12:59:00+00:00,371.1063,11.7,12.17,47.84626,-54.09684
2023-09-30 13:09:00+00:00,366.208,11.7,12.17,47.84626,-54.09684
2023-09-30 13:19:00+00:00,362.9746,11.7,12.25,47.84626,-54.09684
2023-09-30 13:29:00+00:00,361.1129,11.7,12.25,47.84626,-54.09684
2023-09-30 13:39:00+00:00,353.7162,11.7,12.25,47.84626,-54.09684
2023-09-30 13:49:00+00:00,346.9196,11.7,12.25,47.84626,-54.09684
2023-09-30 13:59:00+00:00,341.5363,11.7,12.25,47.84626,-54.09684
2023-09-30 14:09:00+00:00,335.0513,11.7,12.25,47.84626,-54.09684
2023-09-30 14:19:00+00:00,325.4014,11.7,12.33,47.84626,-54.09684
2023-09-30 14:29:00+00:00,318.033,11.7,12.33,47.84626,-54.09684
2023-09-30 14:39:00+00:00,307.673,11.7,12.33,47.84626,-54.09684
2023-09-30 14:49:00+00:00,293.8113,11.7,12.33,47.84626,-54.09684
2023-09-30 14:59:00+00:00,283.0147,11.7,12.33,47.84626,-54.09684
2023-09-30 15:09:00+00:00,272.8831,11.7,12.33,47.84626,-54.09684
2023-09-30 15:19:00+00:00,261.0098,11.7,12.25,47.84626,-54.09684
2023-09-30 15:29:00+00:00,248.2564,11.7,12.25,47.84626,-54.09684
2023-09-30 15:39:00+00:00,237.9614,11.7,12.25,47.84626,-54.09684
2023-09-30 15:49:00+00:00,225.5698,11.7,12.25,47.84626,-54.09684
2023-09-30 15:59:00+00:00,212.2948,11.74,12.25,47.84626,-54.09684
2023-09-30 16:09:00+00:00,203.7998,11.77,12.25,47.84626,-54.09684
2023-09-30 16:19:00+00:00,196.5248,11.79,12.25,47.84626,-54.09684
2023-09-30 16:29:00+00:00,186.9948,11.8,12.25,47.84626,-54.09684
2023-09-30 16:39:00+00:00,180.8915,11.8,12.25,47.84626,-54.09684
2023-09-30 16:49:00+00:00,175.0298,11.8,12.25,47.84626,-54.09684
2023-09-30 16:59:00+00:00,164.7098,11.8,12.25,47.84626,-54.09684
2023-09-30 17:09:00+00:00,158.0515,11.8,12.25,47.84626,-54.09684
2023-09-30 17:19:00+00:00,156.2381,11.8,12.17,47.84626,-54.09684
2023-09-30 17:29:00+00:00,149.3882,11.8,12.17,47.84626,-54.09684
2023-09-30 17:39:00+00:00,141.9732,11.8,12.17,47.84626,-54.09684
2023-09-30 17:49:00+00:00,143.8382,11.8,12.17,47.84626,-54.09684
2023-09-30 17:59:00+00:00,144.2632,11.8,12.17,47.84626,-54.09684
2023-09-30 18:09:00+00:00,140.7931,11.8,12.17,47.84626,-54.09684
2023-09-30 18:19:01+00:00,143.1465,11.8,12.09,47.84626,-54.09684
2023-09-30 18:29:01+00:00,146.6415,11.8,12.09,47.84626,-54.09684
2023-09-30 18:39:01+00:00,145.8065,11.8,12.09,47.84626,-54.09684
2023-09-30 18:49:01+00:00,147.9398,11.8,12.09,47.84626,-54.09684
2023-09-30 18:59:01+00:00,154.6132,11.8,12.09,47.84626,-54.09684
2023-09-30 19:09:01+00:00,158.7081,11.8,12.09,47.84626,-54.09684
2023-09-30 19:19:00+00:00,161.3948,11.8,12.01,47.84626,-54.09684
2023-09-30 19:29:00+00:00,167.5448,11.8,12.01,47.84626,-54.09684
2023-09-30 19:39:00+00:00,176.2315,11.8,12.01,47.84626,-54.09684
2023-09-30 19:49:00+00:00,181.3098,11.8,12.01,47.84626,-54.09684
2023-09-30 19:59:00+00:00,184.3915,11.8,12.01,47.84626,-54.09684
2023-09-30 20:09:00+00:00,192.0448,11.8,12.01,47.84626,-54.09684
2023-09-30 20:19:00+00:00,197.6465,11.8,12.01,47.84626,-54.09684
2023-09-30 20:29:00+00:00,200.2365,11.79,12.01,47.84626,-54.09684
2023-09-30 20:39:00+00:00,206.7998,11.76,12.01,47.84626,-54.09684
2023-09-30 20:49:00+00:00,214.5281,11.79,12.01,47.84626,-54.09684
2023-09-30 20:59:00+00:00,218.9732,11.8,12.01,47.84626,-54.09684
2023-09-30 21:09:00+00:00,224.6114,11.89,12.01,47.84626,-54.09684
2023-09-30 21:19:00+00:00,233.5314,11.9,11.93,47.84626,-54.09684
2023-09-30 21:29:00+00:00,243.8997,11.9,11.93,47.84626,-54.09684
2023-09-30 21:39:00+00:00,251.963,11.96,11.93,47.84626,-54.09684
2023-09-30 21:49:00+00:00,257.9048,11.99,11.93,47.84626,-54.09684
2023-09-30 21:59:00+00:00,264.9581,12.0,11.93,47.84626,-54.09684
2023-09-30 22:09:00+00:00,274.7814,12.0,11.93,47.84626,-54.09684
2023-09-30 22:19:00+00:00,285.5297,12.0,11.93,47.84626,-54.09684
2023-09-30 22:29:00+00:00,294.263,12.0,11.93,47.84626,-54.09684
2023-09-30 22:39:00+00:00,305.3079,12.0,11.93,47.84626,-54.09684
2023-09-30 22:49:00+00:00,315.3113,12.0,11.93,47.84626,-54.09684
2023-09-30 22:59:00+00:00,325.7764,12.0,11.93,47.84626,-54.09684
2023-09-30 23:09:00+00:00,336.6146,12.0,11.93,47.84626,-54.09684
2023-09-30 23:19:00+00:00,345.663,12.0,11.93,47.84626,-54.09684
2023-09-30 23:29:00+00:00,351.4564,12.0,11.93,47.84626,-54.09684
2023-09-30 23:39:00+00:00,356.2313,11.97,11.93,47.84626,-54.09684
2023-09-30 23:49:00+00:00,363.7497,11.95,11.93,47.84626,-54.09684
2023-09-30 23:59:00+00:00,366.0696,11.9,11.93,47.84626,-54.09684
